Simultaneous Nadir Overpasses (SNOs) Predictions

Prediction of SNOs between METOP-B and TERRA Satellite Orbit:

Table of predicted SNOs for the next 14.0 days since TLE Epoch: 8/14/2021
Index Date (METOP-B) Time (METOP-B) Lat,Lon (METOP-B) SZA (METOP-B ) Date (TERRA) Time (TERRA) Lat,Lon (TERRA) SZA (TERRA ) Distance(km) Time Diff (sec)
1 08/14/2021 16:54:30 -81.25, 151.09 110.42 08/14/2021 16:55:19 -81.25, 150.98 110.41 2.00 49
2 08/14/2021 17:45:10 81.26, -41.14 69.65 08/14/2021 17:44:45 81.25, -41.26 69.62 2.22 25
3 08/17/2021 12:28:53 -81.25,-142.58 109.53 08/17/2021 12:29:31 -81.25,-142.49 109.50 1.50 38
4 08/17/2021 13:19:33 81.26, 25.17 70.54 08/17/2021 13:18:57 81.26, 25.24 70.53 1.11 36
5 08/20/2021 08:03:15 -81.26, -75.87 108.56 08/20/2021 08:03:43 -81.26, -75.99 108.56 2.03 28
6 08/20/2021 08:53:55 81.26, 91.86 71.51 08/20/2021 08:53:09 81.26, 91.71 71.47 2.61 46
7 08/23/2021 03:37:37 -81.25, -9.57 107.62 08/23/2021 03:37:54 -81.26, -9.53 107.60 0.77 17
8 08/23/2021 04:28:17 81.26, 158.14 72.45 08/23/2021 04:27:20 81.26, 158.15 72.42 0.21 57
9 08/25/2021 23:12:00 -81.25, 56.73 106.65 08/25/2021 23:12:06 -81.26, 56.90 106.62 3.01 6



Historial Predications of SNOs between METOP-B and TERRA
